QPF
0.01 0.01 0.01 0.01 0.02 0.02 0.02 0.03 0.03 0.03 0.03 0.03 0.03 0.05 0.05 0.07 0.07 0.08 0.07 0.06 0.05 0.06 0.06 0.05 0.06 0.07 0.07 0.05 0.05 0.05 0.05 0.05 0.05 0.04 0.03 0.02 0.02 0.03 0.03 0.04 0.04 0.04 0.03
0.01 0.01 0.01 0.01 0.01 0.02 0.03 0.03 0.03 0.04 0.04 0.04 0.04 0.05 0.05 0.06 0.07 0.08 0.07 0.07 0.08 0.07 0.07 0.06 0.07 0.07 0.07 0.06 0.05 0.05 0.05 0.05 0.05 0.05 0.04 0.03 0.02 0.03 0.03 0.03 0.03 0.03 0.02
0.02 0.01 0.01 0.02 0.02 0.02 0.03 0.03 0.04 0.04 0.05 0.05 0.05 0.05 0.05 0.05 0.05 0.06 0.06 0.07 0.08 0.08 0.09 0.08 0.07 0.08 0.07 0.06 0.05 0.04 0.04 0.04 0.05 0.06 0.05 0.03 0.03 0.03 0.04 0.03 0.02 0.03 0.02
0.01 0.01 0.02 0.03 0.03 0.02 0.03 0.03 0.03 0.03 0.03 0.04 0.05 0.05 0.05 0.04 0.05 0.05 0.05 0.05 0.07 0.08 0.07 0.06 0.06 0.06 0.07 0.06 0.06 0.06 0.06 0.06 0.05 0.05 0.04 0.04 0.04 0.05 0.04 0.03 0.03 0.03 0.03
0.02 0.02 0.03 0.03 0.03 0.02 0.02 0.03 0.03 0.03 0.04 0.04 0.04 0.05 0.05 0.04 0.03 0.03 0.03 0.05 0.05 0.07 0.09 0.09 0.08 0.08 0.07 0.07 0.07 0.06 0.06 0.06 0.05 0.05 0.04 0.04 0.04 0.05 0.04 0.03 0.03 0.03 0.03
0.01 0.01 0.02 0.02 0.02 0.02 0.02 0.03 0.04 0.04 0.04 0.05 0.05 0.05 0.04 0.02 0.02 0.02 0.02 0.04 0.06 0.08 0.08 0.09 0.10 0.12 0.11 0.08 0.07 0.07 0.06 0.05 0.04 0.04 0.04 0.04 0.04 0.04 0.05 0.04 0.03 0.04 0.03
0.01 0.01 0.01 0.01 0.02 0.02 0.02 0.02 0.03 0.05 0.07 0.07 0.06 0.04 0.03 0.03 0.02 0.02 0.02 0.03 0.03 0.04 0.05 0.07 0.08 0.09 0.10 0.09 0.08 0.07 0.06 0.05 0.05 0.05 0.04 0.05 0.04 0.03 0.05 0.04 0.05 0.05 0.04
0.01 0.01 0.01 0.01 0.02 0.02 0.01 0.01 0.03 0.05 0.08 0.09 0.05 0.03 0.03 0.03 0.03 0.02 0.02 0.03 0.03 0.03 0.03 0.04 0.05 0.08 0.11 0.12 0.12 0.10 0.08 0.07 0.06 0.06 0.05 0.05 0.05 0.04 0.04 0.04 0.04 0.04 0.03
0.01 0.01 0.02 0.03 0.03 0.01 0.01 0.02 0.03 0.04 0.07 0.07 0.04 0.03 0.03 0.02 0.02 0.02 0.02 0.04 0.04 0.03 0.04 0.04 0.05 0.05 0.06 0.09 0.11 0.13 0.13 0.10 0.07 0.06 0.05 0.04 0.04 0.03 0.03 0.03 0.03 0.04 0.05
0.01 0.01 0.02 0.02 0.02 0.02 0.02 0.03 0.03 0.04 0.05 0.04 0.03 0.02 0.02 0.02 0.02 0.01 0.02 0.04 0.04 0.04 0.04 0.04 0.04 0.05 0.04 0.04 0.06 0.09 0.12 0.14 0.13 0.09 0.06 0.05 0.05 0.04 0.03 0.04 0.04 0.05 0.06
0.01 0.01 0.01 0.01 0.01 0.01 0.01 0.02 0.03 0.04 0.03 0.03 0.02 0.02 0.03 0.02 0.02 0.01 0.02 0.03 0.03 0.04 0.03 0.04 0.05 0.04 0.04 0.03 0.04 0.06 0.08 0.08 0.10 0.12 0.10 0.07 0.06 0.05 0.05 0.04 0.05 0.06 0.07
0.01 0.02 0.02 0.01 0.01 0.01 0.01 0.01 0.02 0.03 0.02 0.02 0.02 0.02 0.02 0.03 0.03 0.02 0.01 0.02 0.03 0.03 0.03 0.05 0.05 0.04 0.03 0.03 0.03 0.04 0.05 0.06 0.08 0.09 0.11 0.11 0.08 0.06 0.05 0.05 0.05 0.06 0.06
0.01 0.02 0.03 0.02 0.01 0.02 0.02 0.01 0.01 0.02 0.02 0.02 0.01 0.01 0.02 0.03 0.03 0.03 0.02 0.02 0.02 0.02 0.03 0.03 0.03 0.03 0.03 0.03 0.04 0.05 0.05 0.05 0.07 0.08 0.08 0.09 0.09 0.08 0.08 0.07 0.06 0.06 0.05
0.01 0.02 0.03 0.01 0.01 0.02 0.02 0.02 0.02 0.02 0.02 0.02 0.02 0.02 0.03 0.03 0.02 0.03 0.02 0.02 0.02 0.02 0.02 0.02 0.02 0.03 0.03 0.03 0.04 0.04 0.04 0.06 0.07 0.06 0.06 0.06 0.06 0.07 0.08 0.08 0.06 0.05 0.05
0.01 0.02 0.02 0.01 0.01 0.01 0.00 0.01 0.01 0.01 0.02 0.02 0.02 0.03 0.03 0.02 0.02 0.02 0.02 0.02 0.02 0.02 0.03 0.03 0.03 0.03 0.03 0.03 0.03 0.03 0.04 0.04 0.04 0.04 0.04 0.04 0.05 0.05 0.05 0.05 0.05 0.05 0.04
0.01 0.01 0.02 0.02 0.01 0.01 0.01 0.01 0.01 0.01 0.01 0.02 0.03 0.04 0.02 0.02 0.02 0.02 0.02 0.02 0.01 0.02 0.02 0.03 0.03 0.03 0.04 0.03 0.03 0.03 0.03 0.04 0.04 0.03 0.02 0.02 0.03 0.04 0.04 0.04 0.04 0.04 0.04
0.03 0.03 0.02 0.02 0.01 0.01 0.02 0.01 0.01 0.02 0.02 0.03 0.05 0.05 0.03 0.02 0.01 0.02 0.02 0.01 0.01 0.01 0.02 0.02 0.03 0.04 0.04 0.03 0.03 0.03 0.03 0.03 0.03 0.03 0.02 0.02 0.03 0.03 0.04 0.04 0.04 0.04 0.04
0.03 0.03 0.03 0.02 0.02 0.02 0.02 0.02 0.02 0.03 0.02 0.03 0.05 0.05 0.03 0.02 0.01 0.01 0.01 0.01 0.01 0.01 0.02 0.03 0.03 0.04 0.04 0.03 0.03 0.04 0.04 0.03 0.03 0.03 0.03 0.03 0.04 0.05 0.05 0.04 0.04 0.05 0.05
0.02 0.02 0.02 0.02 0.02 0.02 0.02 0.02 0.02 0.02 0.01 0.01 0.02 0.03 0.02 0.02 0.02 0.01 0.01 0.01 0.02 0.02 0.03 0.03 0.04 0.05 0.04 0.02 0.02 0.03 0.05 0.05 0.04 0.03 0.04 0.04 0.05 0.05 0.06 0.05 0.06 0.06 0.07
0.02 0.02 0.02 0.02 0.02 0.02 0.02 0.02 0.03 0.02 0.02 0.01 0.02 0.02 0.02 0.04 0.03 0.02 0.02 0.02 0.03 0.04 0.03 0.04 0.05 0.05 0.04 0.02 0.02 0.02 0.04 0.05 0.05 0.04 0.04 0.04 0.05 0.04 0.05 0.06 0.08 0.08 0.08
0.02 0.02 0.02 0.02 0.01 0.02 0.02 0.02 0.02 0.02 0.02 0.02 0.02 0.02 0.03 0.05 0.04 0.03 0.04 0.04 0.04 0.04 0.04 0.04 0.05 0.05 0.02 0.01 0.01 0.02 0.03 0.04 0.05 0.05 0.04 0.04 0.04 0.04 0.04 0.05 0.06 0.08 0.09
0.01 0.02 0.02 0.02 0.01 0.02 0.03 0.02 0.01 0.02 0.02 0.02 0.02 0.02 0.02 0.04 0.04 0.04 0.04 0.04 0.04 0.05 0.04 0.04 0.03 0.02 0.02 0.02 0.02 0.03 0.04 0.05 0.05 0.04 0.04 0.03 0.03 0.03 0.03 0.03 0.03 0.05 0.08
0.01 0.02 0.02 0.02 0.01 0.01 0.02 0.02 0.02 0.02 0.02 0.02 0.02 0.02 0.02 0.03 0.04 0.04 0.03 0.03 0.04 0.04 0.03 0.03 0.02 0.02 0.02 0.02 0.02 0.03 0.04 0.05 0.05 0.04 0.04 0.03 0.03 0.03 0.03 0.03 0.03 0.04 0.06
0.01 0.02 0.02 0.02 0.01 0.01 0.02 0.03 0.03 0.02 0.02 0.02 0.02 0.02 0.04 0.05 0.05 0.04 0.03 0.04 0.04 0.03 0.02 0.02 0.03 0.03 0.03 0.03 0.04 0.04 0.03 0.04 0.04 0.04 0.03 0.03 0.03 0.03 0.03 0.03 0.03 0.04 0.04
0.02 0.02 0.02 0.03 0.02 0.02 0.01 0.01 0.02 0.02 0.02 0.02 0.02 0.03 0.04 0.06 0.05 0.04 0.04 0.03 0.03 0.03 0.03 0.03 0.04 0.04 0.04 0.04 0.04 0.03 0.03 0.03 0.04 0.04 0.03 0.03 0.03 0.03 0.04 0.04 0.04 0.03 0.03
0.02 0.02 0.02 0.02 0.03 0.01 0.01 0.01 0.01 0.02 0.02 0.02 0.02 0.02 0.03 0.04 0.05 0.04 0.04 0.04 0.04 0.04 0.03 0.03 0.03 0.03 0.03 0.03 0.03 0.02 0.02 0.03 0.03 0.04 0.04 0.03 0.03 0.04 0.04 0.04 0.04 0.03 0.04
MSLP
1003.68 1003.65 1003.65 1003.66 1003.70 1003.78 1003.91 1004.11 1004.41 1004.79 1005.26 1005.78 1006.33 1006.87 1007.38 1007.84 1008.24 1008.59 1008.89 1009.17 1009.45 1009.75 1010.10 1010.50 1010.97 1011.50 1012.09 1012.73 1013.41 1014.13 1014.85 1015.57 1016.26 1016.92 1017.51 1018.05 1018.53 1018.96 1019.34 1019.69 1020.02 1020.34 1020.64
1002.53 1002.52 1002.57 1002.67 1002.81 1002.98 1003.19 1003.46 1003.79 1004.19 1004.66 1005.18 1005.73 1006.28 1006.81 1007.31 1007.76 1008.16 1008.51 1008.83 1009.13 1009.45 1009.79 1010.18 1010.63 1011.14 1011.72 1012.37 1013.07 1013.81 1014.56 1015.31 1016.03 1016.71 1017.32 1017.88 1018.37 1018.80 1019.20 1019.58 1019.95 1020.31 1020.67
1001.42 1001.44 1001.57 1001.77 1002.02 1002.30 1002.62 1002.96 1003.35 1003.77 1004.24 1004.75 1005.28 1005.82 1006.35 1006.85 1007.32 1007.75 1008.13 1008.48 1008.81 1009.14 1009.49 1009.87 1010.31 1010.81 1011.38 1012.03 1012.73 1013.47 1014.23 1014.99 1015.72 1016.41 1017.03 1017.59 1018.09 1018.54 1018.96 1019.36 1019.76 1020.16 1020.57
1000.45 1000.52 1000.74 1001.04 1001.41 1001.82 1002.24 1002.67 1003.11 1003.57 1004.04 1004.52 1005.02 1005.52 1006.02 1006.51 1006.97 1007.39 1007.79 1008.16 1008.51 1008.85 1009.21 1009.60 1010.03 1010.53 1011.09 1011.72 1012.41 1013.14 1013.90 1014.65 1015.38 1016.07 1016.70 1017.26 1017.77 1018.23 1018.67 1019.09 1019.51 1019.95 1020.39
999.71 999.84 1000.13 1000.54 1001.02 1001.54 1002.06 1002.58 1003.07 1003.55 1004.02 1004.47 1004.93 1005.38 1005.83 1006.28 1006.71 1007.12 1007.52 1007.89 1008.26 1008.62 1008.99 1009.39 1009.83 1010.32 1010.87 1011.49 1012.16 1012.87 1013.60 1014.34 1015.06 1015.74 1016.37 1016.94 1017.46 1017.93 1018.38 1018.82 1019.26 1019.71 1020.16
999.24 999.41 999.76 1000.24 1000.81 1001.42 1002.02 1002.60 1003.14 1003.64 1004.10 1004.53 1004.94 1005.35 1005.74 1006.14 1006.54 1006.93 1007.32 1007.71 1008.09 1008.47 1008.87 1009.29 1009.74 1010.23 1010.77 1011.37 1012.01 1012.69 1013.40 1014.11 1014.81 1015.47 1016.10 1016.68 1017.21 1017.70 1018.16 1018.60 1019.05 1019.50 1019.95
999.04 999.22 999.60 1000.12 1000.73 1001.38 1002.03 1002.65 1003.22 1003.73 1004.19 1004.60 1004.98 1005.34 1005.70 1006.06 1006.43 1006.82 1007.21 1007.61 1008.02 1008.44 1008.87 1009.31 1009.78 1010.28 1010.81 1011.38 1012.00 1012.65 1013.32 1013.99 1014.67 1015.32 1015.94 1016.52 1017.06 1017.57 1018.04 1018.49 1018.93 1019.36 1019.79
999.08 999.25 999.61 1000.11 1000.71 1001.36 1002.02 1002.64 1003.22 1003.73 1004.19 1004.60 1004.96 1005.31 1005.66 1006.01 1006.38 1006.78 1007.19 1007.62 1008.07 1008.53 1009.00 1009.48 1009.97 1010.48 1011.01 1011.57 1012.15 1012.76 1013.39 1014.03 1014.68 1015.31 1015.92 1016.51 1017.06 1017.57 1018.05 1018.50 1018.93 1019.33 1019.72
999.33 999.44 999.74 1000.18 1000.72 1001.32 1001.93 1002.54 1003.10 1003.61 1004.08 1004.49 1004.88 1005.24 1005.61 1005.98 1006.38 1006.81 1007.27 1007.75 1008.25 1008.76 1009.28 1009.80 1010.32 1010.84 1011.37 1011.91 1012.46 1013.03 1013.62 1014.22 1014.84 1015.45 1016.06 1016.64 1017.19 1017.71 1018.20 1018.64 1019.05 1019.42 1019.76
999.77 999.80 1000.00 1000.33 1000.77 1001.27 1001.82 1002.37 1002.90 1003.41 1003.88 1004.33 1004.75 1005.16 1005.57 1006.00 1006.45 1006.93 1007.44 1007.98 1008.54 1009.11 1009.67 1010.24 1010.78 1011.32 1011.85 1012.37 1012.89 1013.43 1013.98 1014.55 1015.13 1015.72 1016.31 1016.89 1017.45 1017.97 1018.45 1018.89 1019.27 1019.61 1019.90
1000.39 1000.33 1000.40 1000.60 1000.91 1001.30 1001.75 1002.23 1002.73 1003.22 1003.71 1004.19 1004.65 1005.12 1005.59 1006.08 1006.60 1007.14 1007.72 1008.31 1008.92 1009.54 1010.15 1010.75 1011.32 1011.87 1012.40 1012.90 1013.41 1013.91 1014.43 1014.97 1015.52 1016.09 1016.66 1017.24 1017.79 1018.31 1018.78 1019.20 1019.56 1019.87 1020.11
1001.19 1001.03 1000.99 1001.06 1001.24 1001.51 1001.85 1002.26 1002.70 1003.18 1003.67 1004.18 1004.69 1005.21 1005.74 1006.29 1006.86 1007.45 1008.07 1008.71 1009.36 1010.01 1010.65 1011.27 1011.86 1012.42 1012.94 1013.45 1013.93 1014.42 1014.91 1015.42 1015.95 1016.49 1017.05 1017.61 1018.16 1018.67 1019.13 1019.54 1019.87 1020.15 1020.35
1002.15 1001.93 1001.79 1001.75 1001.81 1001.97 1002.22 1002.55 1002.94 1003.39 1003.88 1004.40 1004.93 1005.49 1006.05 1006.63 1007.23 1007.85 1008.49 1009.14 1009.81 1010.47 1011.11 1011.74 1012.33 1012.89 1013.42 1013.92 1014.40 1014.87 1015.35 1015.84 1016.35 1016.88 1017.42 1017.97 1018.50 1019.00 1019.45 1019.83 1020.15 1020.39 1020.57
1003.22 1002.97 1002.78 1002.67 1002.64 1002.71 1002.88 1003.15 1003.49 1003.91 1004.38 1004.89 1005.42 1005.98 1006.54 1007.12 1007.71 1008.31 1008.93 1009.56 1010.20 1010.84 1011.47 1012.09 1012.68 1013.23 1013.76 1014.26 1014.74 1015.21 1015.69 1016.17 1016.67 1017.19 1017.72 1018.25 1018.76 1019.24 1019.67 1020.04 1020.34 1020.56 1020.71
1004.32 1004.08 1003.88 1003.73 1003.67 1003.70 1003.82 1004.04 1004.34 1004.72 1005.15 1005.63 1006.13 1006.65 1007.17 1007.70 1008.24 1008.79 1009.34 1009.92 1010.50 1011.10 1011.69 1012.28 1012.86 1013.41 1013.94 1014.45 1014.94 1015.42 1015.90 1016.39 1016.89 1017.39 1017.91 1018.42 1018.91 1019.37 1019.77 1020.12 1020.40 1020.60 1020.74
1005.33 1005.13 1004.96 1004.83 1004.77 1004.79 1004.90 1005.10 1005.37 1005.72 1006.11 1006.54 1006.99 1007.44 1007.89 1008.34 1008.78 1009.24 1009.71 1010.19 1010.70 1011.23 1011.77 1012.33 1012.88 1013.43 1013.96 1014.48 1014.99 1015.49 1015.98 1016.47 1016.97 1017.47 1017.96 1018.45 1018.92 1019.35 1019.73 1020.05 1020.31 1020.50 1020.62
1006.14 1006.00 1005.89 1005.82 1005.80 1005.85 1005.98 1006.18 1006.44 1006.76 1007.12 1007.50 1007.88 1008.25 1008.61 1008.95 1009.30 1009.64 1010.00 1010.39 1010.81 1011.26 1011.75 1012.26 1012.80 1013.34 1013.87 1014.41 1014.93 1015.45 1015.95 1016.45 1016.94 1017.42 1017.90 1018.35 1018.79 1019.19 1019.54 1019.84 1020.08 1020.26 1020.38
1006.68 1006.62 1006.58 1006.58 1006.62 1006.73 1006.90 1007.12 1007.40 1007.71 1008.04 1008.37 1008.69 1008.99 1009.26 1009.50 1009.74 1009.98 1010.24 1010.53 1010.87 1011.25 1011.68 1012.16 1012.67 1013.20 1013.74 1014.29 1014.82 1015.35 1015.85 1016.35 1016.83 1017.29 1017.73 1018.15 1018.55 1018.91 1019.24 1019.51 1019.73 1019.90 1020.02
1006.96 1006.96 1006.98 1007.05 1007.17 1007.34 1007.56 1007.83 1008.13 1008.46 1008.78 1009.08 1009.36 1009.59 1009.79 1009.96 1010.12 1010.27 1010.44 1010.66 1010.92 1011.25 1011.63 1012.07 1012.56 1013.09 1013.63 1014.18 1014.72 1015.24 1015.74 1016.22 1016.67 1017.10 1017.51 1017.89 1018.24 1018.56 1018.85 1019.10 1019.31 1019.47 1019.60
1007.04 1007.07 1007.14 1007.26 1007.44 1007.67 1007.95 1008.27 1008.60 1008.95 1009.28 1009.58 1009.84 1010.04 1010.20 1010.32 1010.42 1010.51 1010.63 1010.79 1011.01 1011.29 1011.64 1012.06 1012.53 1013.05 1013.58 1014.12 1014.65 1015.16 1015.65 1016.10 1016.51 1016.90 1017.25 1017.58 1017.89 1018.17 1018.42 1018.65 1018.85 1019.01 1019.15
1007.03 1007.06 1007.15 1007.30 1007.52 1007.79 1008.11 1008.46 1008.84 1009.21 1009.56 1009.87 1010.13 1010.33 1010.48 1010.58 1010.66 1010.73 1010.82 1010.95 1011.14 1011.41 1011.74 1012.14 1012.60 1013.10 1013.62 1014.14 1014.66 1015.14 1015.59 1016.00 1016.37 1016.71 1017.01 1017.29 1017.54 1017.78 1018.00 1018.21 1018.39 1018.56 1018.71
1007.06 1007.07 1007.15 1007.30 1007.52 1007.80 1008.14 1008.51 1008.91 1009.30 1009.67 1010.00 1010.28 1010.49 1010.65 1010.76 1010.84 1010.92 1011.01 1011.14 1011.32 1011.57 1011.90 1012.29 1012.73 1013.22 1013.72 1014.23 1014.71 1015.17 1015.58 1015.94 1016.27 1016.55 1016.79 1017.02 1017.23 1017.42 1017.61 1017.80 1017.98 1018.15 1018.31
1007.23 1007.21 1007.25 1007.37 1007.56 1007.82 1008.14 1008.51 1008.90 1009.30 1009.68 1010.02 1010.31 1010.55 1010.73 1010.86 1010.97 1011.06 1011.17 1011.31 1011.50 1011.76 1012.08 1012.46 1012.90 1013.37 1013.85 1014.33 1014.79 1015.21 1015.58 1015.91 1016.19 1016.42 1016.62 1016.80 1016.96 1017.12 1017.29 1017.45 1017.62 1017.80 1017.96
1007.58 1007.52 1007.52 1007.59 1007.73 1007.94 1008.22 1008.54 1008.91 1009.28 1009.65 1009.99 1010.28 1010.53 1010.73 1010.89 1011.02 1011.14 1011.27 1011.43 1011.64 1011.90 1012.23 1012.61 1013.03 1013.49 1013.96 1014.42 1014.85 1015.24 1015.59 1015.88 1016.12 1016.32 1016.48 1016.62 1016.75 1016.88 1017.02 1017.17 1017.32 1017.49 1017.65
1008.05 1007.97 1007.93 1007.94 1008.02 1008.17 1008.38 1008.64 1008.95 1009.28 1009.61 1009.93 1010.21 1010.46 1010.67 1010.85 1010.99 1011.14 1011.29 1011.47 1011.69 1011.96 1012.29 1012.67 1013.09 1013.54 1013.99 1014.44 1014.86 1015.23 1015.56 1015.83 1016.05 1016.23 1016.37 1016.48 1016.59 1016.69 1016.81 1016.93 1017.06 1017.21 1017.35
1008.56 1008.47 1008.40 1008.37 1008.39 1008.46 1008.60 1008.79 1009.03 1009.30 1009.58 1009.85 1010.11 1010.34 1010.55 1010.73 1010.89 1011.04 1011.21 1011.40 1011.64 1011.92 1012.25 1012.63 1013.04 1013.49 1013.94 1014.38 1014.79 1015.16 1015.48 1015.75 1015.96 1016.13 1016.26 1016.36 1016.45 1016.53 1016.62 1016.71 1016.82 1016.93 1017.04
Thickness
5665 5662 5659 5657 5655 5653 5651 5650 5648 5647 5646 5644 5644 5643 5643 5643 5642 5641 5641 5641 5640 5640 5639 5639 5638 5639 5640 5642 5642 5643 5644 5644 5642 5645 5647 5647 5643 5642 5643 5643 5643 5642 5643
5661 5658 5655 5653 5651 5648 5647 5645 5644 5643 5642 5641 5639 5639 5639 5639 5638 5638 5636 5637 5636 5635 5635 5635 5635 5636 5635 5636 5637 5639 5640 5640 5639 5637 5639 5640 5638 5638 5638 5637 5639 5640 5639
5657 5654 5651 5648 5646 5644 5643 5641 5640 5639 5638 5637 5636 5635 5634 5634 5634 5633 5633 5632 5632 5632 5632 5632 5632 5632 5631 5633 5633 5635 5635 5637 5636 5634 5634 5635 5634 5634 5633 5633 5634 5633 5633
5653 5650 5647 5644 5642 5640 5639 5637 5636 5636 5634 5633 5632 5631 5630 5630 5630 5630 5630 5629 5629 5630 5630 5629 5629 5629 5629 5630 5630 5630 5630 5630 5630 5630 5630 5630 5630 5630 5629 5629 5628 5629 5629
5648 5646 5643 5641 5639 5637 5635 5633 5632 5631 5631 5629 5628 5628 5627 5627 5626 5626 5626 5627 5626 5627 5627 5627 5627 5626 5626 5625 5627 5627 5626 5626 5627 5627 5627 5627 5627 5625 5625 5626 5625 5625 5624
5644 5642 5640 5638 5637 5634 5632 5630 5628 5628 5627 5627 5626 5625 5624 5624 5621 5618 5619 5622 5623 5623 5624 5624 5624 5624 5622 5620 5620 5620 5621 5622 5624 5624 5624 5623 5622 5622 5622 5621 5620 5618 5617
5641 5639 5637 5635 5633 5631 5629 5628 5625 5624 5623 5623 5623 5622 5621 5619 5615 5613 5612 5614 5618 5619 5620 5620 5621 5623 5621 5621 5619 5616 5616 5616 5617 5619 5620 5620 5619 5619 5616 5615 5614 5614 5613
5637 5636 5635 5632 5630 5628 5626 5624 5622 5621 5620 5619 5619 5618 5618 5616 5612 5610 5609 5611 5614 5615 5616 5616 5616 5617 5618 5618 5618 5618 5618 5617 5617 5616 5616 5617 5617 5615 5612 5610 5609 5608 5608
5634 5632 5631 5629 5626 5624 5622 5620 5619 5617 5616 5616 5616 5615 5614 5612 5609 5607 5605 5609 5611 5612 5613 5613 5613 5613 5611 5610 5612 5613 5613 5614 5613 5612 5612 5611 5609 5608 5606 5605 5605 5604 5604
5630 5629 5628 5625 5622 5620 5618 5616 5615 5614 5613 5614 5613 5612 5611 5610 5606 5603 5601 5606 5608 5609 5609 5610 5608 5607 5606 5605 5607 5608 5609 5610 5611 5610 5608 5607 5606 5605 5601 5601 5602 5601 5599
5628 5626 5624 5621 5619 5617 5615 5613 5612 5611 5611 5610 5609 5609 5608 5607 5604 5601 5598 5602 5604 5605 5607 5607 5607 5602 5600 5599 5600 5603 5603 5603 5605 5605 5606 5607 5606 5604 5602 5600 5598 5596 5594
5623 5621 5619 5618 5616 5616 5612 5610 5610 5608 5608 5608 5607 5606 5607 5606 5603 5600 5596 5595 5596 5599 5601 5602 5601 5596 5595 5594 5595 5596 5596 5596 5600 5602 5601 5602 5601 5600 5598 5595 5592 5590 5587
5618 5616 5615 5614 5613 5611 5609 5609 5608 5607 5607 5607 5607 5606 5605 5605 5602 5596 5593 5592 5591 5593 5597 5594 5592 5591 5590 5592 5591 5591 5592 5596 5598 5598 5597 5597 5596 5594 5591 5589 5586 5583 5581
5614 5612 5612 5611 5611 5609 5608 5608 5606 5605 5604 5604 5602 5601 5600 5599 5598 5596 5594 5592 5590 5591 5592 5590 5588 5587 5588 5588 5589 5590 5592 5594 5594 5594 5593 5592 5590 5588 5586 5585 5583 5581 5578
5610 5609 5609 5609 5609 5606 5606 5603 5602 5600 5597 5595 5595 5595 5594 5593 5590 5584 5584 5587 5588 5588 5586 5589 5591 5591 5591 5591 5591 5591 5590 5590 5590 5589 5587 5586 5585 5584 5582 5581 5578 5577 5575
5606 5605 5606 5606 5605 5605 5604 5603 5598 5595 5591 5588 5585 5584 5587 5583 5581 5580 5579 5578 5578 5577 5581 5588 5589 5589 5589 5588 5588 5587 5587 5586 5585 5583 5583 5582 5580 5579 5578 5577 5575 5574 5571
5601 5601 5602 5603 5602 5602 5601 5600 5599 5595 5590 5587 5585 5582 5579 5578 5577 5577 5576 5576 5576 5575 5582 5586 5586 5585 5585 5585 5585 5584 5583 5582 5580 5579 5578 5577 5576 5575 5573 5571 5570 5569 5567
5599 5598 5598 5598 5599 5599 5598 5598 5598 5597 5596 5594 5588 5582 5580 5578 5577 5576 5575 5575 5581 5581 5583 5584 5583 5583 5582 5581 5581 5580 5578 5577 5576 5575 5574 5572 5571 5570 5568 5567 5564 5562 5560
5596 5596 5595 5595 5596 5597 5597 5596 5596 5596 5595 5594 5593 5589 5582 5580 5577 5576 5575 5580 5583 5583 5583 5582 5582 5581 5579 5578 5576 5575 5574 5573 5572 5571 5570 5568 5567 5565 5564 5562 5560 5554 5554
5593 5590 5589 5592 5594 5595 5595 5594 5593 5593 5592 5591 5591 5590 5587 5584 5585 5583 5580 5580 5581 5580 5580 5579 5578 5577 5576 5575 5573 5571 5570 5569 5568 5568 5566 5564 5563 5561 5559 5557 5556 5554 5552
5592 5591 5586 5590 5591 5591 5591 5591 5590 5590 5589 5589 5588 5586 5578 5583 5583 5582 5581 5579 5577 5576 5575 5575 5574 5574 5573 5571 5570 5569 5567 5566 5564 5563 5562 5560 5559 5557 5555 5553 5552 5551 5549
5586 5588 5588 5589 5589 5589 5588 5589 5588 5587 5587 5586 5586 5585 5576 5579 5579 5579 5577 5575 5574 5573 5572 5571 5572 5572 5570 5569 5567 5565 5563 5561 5560 5559 5558 5557 5555 5554 5552 5550 5548 5546 5544
5581 5583 5584 5585 5585 5583 5584 5585 5585 5585 5584 5583 5583 5581 5579 5576 5574 5573 5572 5572 5570 5570 5569 5568 5568 5568 5567 5564 5563 5561 5560 5558 5556 5554 5553 5552 5551 5550 5548 5546 5544 5541 5540
5577 5578 5579 5580 5580 5581 5581 5581 5581 5580 5580 5578 5577 5576 5574 5571 5569 5568 5568 5568 5567 5566 5566 5565 5565 5563 5561 5559 5558 5557 5555 5551 5550 5550 5548 5548 5547 5545 5545 5543 5540 5539 5536
5573 5573 5573 5573 5574 5576 5577 5577 5576 5575 5574 5573 5572 5571 5570 5568 5565 5564 5564 5564 5563 5563 5562 5561 5560 5559 5557 5555 5553 5551 5545 5543 5542 5542 5543 5544 5543 5542 5541 5539 5537 5535 5533
5568 5568 5568 5568 5568 5569 5570 5571 5572 5571 5570 5569 5567 5566 5565 5563 5562 5561 5560 5559 5559 5559 5557 5557 5555 5554 5552 5550 5547 5543 5540 5539 5537 5536 5538 5540 5540 5540 5538 5536 5534 5533 5530